HULIANWANG DIGUI-33

导读 | 星芒AI

HULIANWANG DIGUI-33 是一颗由中国发射的卫星,属于“鸿联”系列卫星之一,主要用于通信、导航及遥感等领域的技术验证与应用。该卫星采用先进的数字化平台,具备高精度数据传输和图像采集能力,旨在提升我国在卫星通信和空间信息服务方面的能力。其成功发射标志着中国在卫星技术自主化和应用拓展方面取得新进展。

基本信息
目录编号:
64286
目录名称:
HULIANWANG DIGUI-33
国际标识:
2025-121D
轨道中心:
EARTH
卫星名称:
HULIANWANG DIGUI-33
卫星全名:
HULIANWANG DIGUI-33
卫星状态:
在轨 (已飞行194 天)
发射日期:
2025-06-05 UTC
国别 :
中国 (CN)
星等 :
--
轨道信息
数据来源 国际轨道数据 AOE轨道数据
星历时间 2025-12-15T16:05:33+0800
17小时前
查看轨道信息
2025-12-15T07:00:00+0800
1天前
查看轨道信息
半长轴 7546.025km 7546.024km
偏心率 0.0001398 0.0001265
轨道倾角 86.499° 86.499°
近地点辐角 115.263° 114.571°
升交点赤经 75.649° 75.775°
平近点角 244.865° 240.254°
近地点 1166.835km 1166.934km
远地点 1168.945km 1168.844km
周期 108.727分钟 108.727分钟
每日圈数 13.24419 13.244195
详细信息
使用方式:
暂无
2D轨道图
3D轨道图
轨道高度分析图
轨道倾角分析图
轨道综合分析图
查看轨道综合分析图